Location: De Forest
(43.2480°N, 89.3440°W)
Time: 01:41:44
(UTC-05:00)

OTV 5 (USA 277) - Visible Passes

Search period start: 16 October 2019 00:00
Search period end: 26 October 2019 00:00
Orbit: 310 x 324 km, 54.5° (Epoch: 08 October)

Date Brightness Start Highest point End Pass type
(mag) Time Alt. Az. Time Alt. Az. Time Alt. Az.
16 Oct ? 05:10:53 12° NNE 05:10:53 12° NNE 05:11:49 10° NE visible
17 Oct ? 05:25:13 18° NNE 05:25:32 18° NNE 05:27:32 10° ENE visible
18 Oct ? 05:39:38 28° N 05:40:18 33° NNE 05:42:49 10° E visible
19 Oct ? 05:54:10 43° NW 05:54:55 85° NE 05:57:39 10° SE visible
20 Oct ? 06:08:49 28° WSW 06:09:24 31° SW 06:11:53 10° SSE visible
21 Oct ? 06:23:36 12° SW 06:23:44 12° SW 06:24:57 10° SSW visible
